Location: Sihaung
(22.8641°N, 94.0549°E)
Time: 01:45:15
(UTC+00:00)

CZ-2D R/B - Pass Details

Date: 03 March 2021
Orbit: 522 x 536 km, 97.4° (Epoch: 13 April)

Event Time Altitude Azimuth Distance (km) Brightness Sun altitude
Rises 12:21:39 0° 177° (S) 2,632 6.8 -8.5°
Reaches altitude 10° 12:23:46 10° 181° (S) 1,748 5.9 -9.0°
Maximum altitude 12:27:28 55° 260° (W) 628 4.0 -9.9°
Drops below altitude 10° 12:31:11 10° 339° (NNW) 1,758 6.1 -10.7°
Sets 12:33:19 0° 343° (NNW) 2,650 7.0 -11.2°
